Change the Weather History Date:

Saturday, May 4, 2013

  Actual Average (PASK) Record (PASK)
Temperature  
Mean Temperature 12 °F -  
Max Temperature 15 °F 31 °F 51 °F (2004)
Min Temperature 8 °F 18 °F -7 °F (2001)
Degree Days  
Heating Degree Days 54    
Moisture  
Dew Point 6 °F    
Average Humidity 83    
Maximum Humidity 92    
Minimum Humidity 67    
Precipitation  
Precipitation 0.00 in - - ()
Sea Level Pressure  
Sea Level Pressure 30.17 in    
Wind  
Wind Speed 8 mph (NNW)    
Max Wind Speed 14 mph    
Max Gust Speed 16 mph    
Visibility 8 miles    
Events      
Averages and records for this station are not official NWS values.
T = Trace of Precipitation, MM = Missing Value Source: NWS Daily Summary

Daily Weather History Graph

Daily Weather History Graph

Search for Another Location

Airport or City:

Trip Planner

Search our weather history database for the weather conditions in past years. The results will help you decide how hot, cold, wet, or windy it might be!

Date:

Astronomy

May. 04, 2013 Rise Set
Actual Time 5:48 AM AKDT 11:37 PM AKDT
Civil Twilight 4:16 AM AKDT 1:12 AM AKDT
Nautical Twilight Sun does not rise Sun does not rise
Astronomical Twilight Sun does not rise Sun does not rise
Moon 5:04 AM AKDT (5/4) 4:46 PM AKDT (5/4)
Length of Visible Light 20h 55m
Length of Day
17h 49m
Waning Crescent, 25% of the Moon is Illuminated
May 4
Waning Crescent
May 9
New
May 17
First Quarter
May 24
Full
May 31
Last Quarter

Hourly Weather History & Observations

Time (AKDT) Temp. Windchill Dew Point Humidity Pressure Visibility Wind Dir Wind Speed Gust Speed Precip Events Conditions
12:16 AM 12.2 °F -0.2 °F 8.6 °F 85% 30.20 in 4.0 mi NW 9.2 mph - N/A   Overcast
12:36 AM 12.2 °F -1.8 °F 8.6 °F 85% 30.20 in 4.0 mi NW 11.5 mph - N/A   Overcast
12:56 AM 12.2 °F -1.0 °F 8.6 °F 85% 30.20 in 5.0 mi NW 10.4 mph 16.1 mph N/A   Overcast
1:16 AM 10.4 °F -3.3 °F 8.6 °F 92% 30.20 in 5.0 mi NW 10.4 mph - N/A   Overcast
1:36 AM 10.4 °F -2.4 °F 8.6 °F 92% 30.20 in 3.0 mi NW 9.2 mph - N/A   Overcast
1:56 AM 10.4 °F -4.1 °F 6.8 °F 85% 30.20 in 3.0 mi NW 11.5 mph - N/A   Overcast
2:16 AM 10.4 °F -5.4 °F 8.6 °F 92% 30.20 in 3.0 mi NW 13.8 mph - N/A   Overcast
2:36 AM 10.4 °F -3.3 °F 8.6 °F 92% 30.20 in 2.0 mi NW 10.4 mph - N/A   Overcast
2:56 AM 10.4 °F -3.3 °F 8.6 °F 92% 30.20 in 2.0 mi WNW 10.4 mph - N/A   Overcast
3:16 AM 10.4 °F -1.5 °F 6.8 °F 85% 30.20 in 2.0 mi NW 8.1 mph - N/A   Overcast
3:36 AM 8.6 °F -4.7 °F 6.8 °F 92% 30.19 in 2.0 mi NW 9.2 mph - N/A   Overcast
3:56 AM 8.6 °F -5.5 °F 5.0 °F 85% 30.19 in 5.0 mi NW 10.4 mph - N/A   Overcast
4:16 AM 8.6 °F -3.7 °F 5.0 °F 85% 30.19 in 4.0 mi NW 8.1 mph - N/A   Overcast
4:36 AM 8.6 °F -5.5 °F 6.8 °F 92% 30.19 in 5.0 mi NW 10.4 mph - N/A   Overcast
4:56 AM 10.4 °F -3.3 °F 8.6 °F 92% 30.18 in 5.0 mi WNW 10.4 mph - N/A   Overcast
5:16 AM 10.4 °F -4.1 °F 6.8 °F 85% 30.17 in 7.0 mi NW 11.5 mph - N/A   Overcast
5:36 AM 10.4 °F -3.3 °F 6.8 °F 85% 30.17 in 6.0 mi NW 10.4 mph - N/A   Overcast
5:56 AM 10.4 °F -4.8 °F 6.8 °F 85% 30.17 in 5.0 mi NW 12.7 mph - N/A   Overcast
6:16 AM 10.4 °F -0.4 °F 6.8 °F 85% 30.17 in 5.0 mi NW 6.9 mph - N/A   Overcast
6:36 AM 8.6 °F -5.5 °F 6.8 °F 92% 30.17 in 3.0 mi NW 10.4 mph - N/A   Overcast
6:56 AM 10.4 °F 2.2 °F 8.6 °F 92% 30.17 in 5.0 mi WNW 4.6 mph - N/A   Overcast
7:16 AM 10.4 °F -2.4 °F 8.6 °F 92% 30.16 in 3.0 mi NW 9.2 mph - N/A   Overcast
7:36 AM 8.6 °F -3.7 °F 6.8 °F 92% 30.17 in 9.0 mi West 8.1 mph - N/A   Overcast
7:56 AM 10.4 °F -1.5 °F 5.0 °F 79% 30.16 in 4.0 mi NW 8.1 mph - N/A   Overcast
8:16 AM 10.4 °F -3.3 °F 6.8 °F 85% 30.16 in 7.0 mi WNW 10.4 mph - N/A   Overcast
8:36 AM 8.6 °F -3.7 °F 6.8 °F 92% 30.16 in 9.0 mi NNW 8.1 mph - N/A   Overcast
8:56 AM 8.6 °F -5.5 °F 3.2 °F 79% 30.16 in 5.0 mi WNW 10.4 mph - N/A   Overcast
9:16 AM 8.6 °F -4.7 °F 3.2 °F 79% 30.16 in 8.0 mi NW 9.2 mph - N/A   Overcast
9:36 AM 8.6 °F -5.5 °F 6.8 °F 92% 30.16 in 8.0 mi WNW 10.4 mph - N/A   Overcast
9:56 AM 8.6 °F -2.6 °F 6.8 °F 92% 30.16 in 9.0 mi WNW 6.9 mph - N/A   Overcast
10:16 AM 8.6 °F -7.0 °F 5.0 °F 85% 30.15 in 10.0 mi NW 12.7 mph - N/A   Overcast
10:36 AM 8.6 °F -5.5 °F 6.8 °F 92% 30.16 in 7.0 mi WNW 10.4 mph - N/A   Overcast
10:56 AM 8.6 °F -3.7 °F 6.8 °F 92% 30.16 in 9.0 mi WNW 8.1 mph - N/A   Overcast
11:16 AM 8.6 °F -6.3 °F 5.0 °F 85% 30.15 in 9.0 mi NW 11.5 mph - N/A   Overcast
11:36 AM 8.6 °F -5.5 °F 5.0 °F 85% 30.16 in 10.0 mi NW 10.4 mph - N/A   Overcast
11:56 AM 8.6 °F -4.7 °F 5.0 °F 85% 30.16 in 10.0 mi NW 9.2 mph - N/A   Overcast
12:16 PM 8.6 °F -1.3 °F 5.0 °F 85% 30.16 in 10.0 mi NW 5.8 mph - N/A   Overcast
12:36 PM 8.6 °F -1.3 °F 5.0 °F 85% 30.16 in 10.0 mi West 5.8 mph - N/A   Overcast
12:56 PM 10.4 °F 4.0 °F 6.8 °F 85% 30.16 in 9.0 mi SW 3.5 mph - N/A   Overcast
1:16 PM 10.4 °F - 6.8 °F 85% 30.16 in 7.0 mi Calm Calm - N/A   Overcast
1:36 PM 10.4 °F 4.0 °F 3.2 °F 73% 30.16 in 10.0 mi NNW 3.5 mph - N/A   Mostly Cloudy
1:56 PM 10.4 °F - 3.2 °F 73% 30.16 in 10.0 mi Calm Calm - N/A   Mostly Cloudy
2:16 PM 10.4 °F - 3.2 °F 73% 30.16 in 10.0 mi Calm Calm - N/A   Mostly Cloudy
2:36 PM 10.4 °F - 5.0 °F 79% 30.16 in 10.0 mi Calm Calm - N/A   Partly Cloudy
2:56 PM 12.2 °F - 6.8 °F 79% 30.16 in 10.0 mi Calm Calm - N/A   Clear
3:16 PM 10.4 °F 4.0 °F 6.8 °F 85% 30.15 in 10.0 mi SSW 3.5 mph - N/A   Clear
3:36 PM 12.2 °F 6.1 °F 6.8 °F 79% 30.15 in 10.0 mi NNE 3.5 mph - N/A   Clear
3:56 PM 10.4 °F 2.2 °F 5.0 °F 79% 30.15 in 10.0 mi ENE 4.6 mph - N/A   Clear
4:16 PM 10.4 °F 2.2 °F 5.0 °F 79% 30.15 in 10.0 mi NE 4.6 mph - N/A   Clear
4:36 PM 10.4 °F 0.8 °F 5.0 °F 79% 30.15 in 10.0 mi NE 5.8 mph - N/A   Clear
4:56 PM 10.4 °F 0.8 °F 5.0 °F 79% 30.15 in 10.0 mi NE 5.8 mph - N/A   Clear
5:16 PM 10.4 °F 0.8 °F 5.0 °F 79% 30.15 in 10.0 mi ENE 5.8 mph - N/A   Clear
5:36 PM 10.4 °F 2.2 °F 5.0 °F 79% 30.15 in 10.0 mi ENE 4.6 mph - N/A   Clear
5:56 PM 12.2 °F 4.3 °F 3.2 °F 67% 30.15 in 10.0 mi East 4.6 mph - N/A   Clear
6:16 PM 12.2 °F - 5.0 °F 73% 30.15 in 10.0 mi Calm Calm - N/A   Clear
6:36 PM 12.2 °F 6.1 °F 6.8 °F 79% 30.15 in 10.0 mi East 3.5 mph - N/A   Clear
6:56 PM 12.2 °F - 5.0 °F 73% 30.15 in 10.0 mi Calm Calm - N/A   Clear
7:16 PM 14.0 °F 8.2 °F 6.8 °F 73% 30.15 in 10.0 mi East 3.5 mph - N/A   Clear
7:36 PM 14.0 °F - 6.8 °F 73% 30.15 in 10.0 mi Calm Calm - N/A   Clear
7:56 PM 14.0 °F 6.5 °F 6.8 °F 73% 30.15 in 10.0 mi ESE 4.6 mph - N/A   Clear
8:16 PM 15.8 °F 10.2 °F 6.8 °F 68% 30.15 in 10.0 mi ESE 3.5 mph - N/A   Clear
8:36 PM 12.2 °F 4.3 °F 6.8 °F 79% 30.15 in 10.0 mi East 4.6 mph - N/A   Clear
8:56 PM 12.2 °F 4.3 °F 5.0 °F 73% 30.15 in 10.0 mi East 4.6 mph - N/A   Clear
9:16 PM 12.2 °F 6.1 °F 6.8 °F 79% 30.15 in 10.0 mi ESE 3.5 mph - N/A   Scattered Clouds
9:36 PM 12.2 °F 2.9 °F 5.0 °F 73% 30.15 in 10.0 mi ESE 5.8 mph - N/A   Mostly Cloudy
9:56 PM 10.4 °F 2.2 °F 5.0 °F 79% 30.15 in 10.0 mi East 4.6 mph - N/A   Overcast
10:16 PM 10.4 °F 2.2 °F 5.0 °F 79% 30.15 in 10.0 mi ESE 4.6 mph - N/A   Overcast
10:36 PM 10.4 °F 0.8 °F 6.8 °F 85% 30.16 in 10.0 mi SE 5.8 mph - N/A   Overcast
10:56 PM 10.4 °F 0.8 °F 6.8 °F 85% 30.16 in 10.0 mi SE 5.8 mph - N/A   Overcast
11:16 PM 12.2 °F 1.7 °F 6.8 °F 79% 30.16 in 10.0 mi SE 6.9 mph - N/A   Overcast
11:36 PM 12.2 °F 4.3 °F 8.6 °F 85% 30.16 in 10.0 mi SE 4.6 mph - N/A   Overcast
11:56 PM 14.0 °F 6.5 °F 8.6 °F 79% 30.16 in 10.0 mi SE 4.6 mph - N/A   Overcast